Regional Weather Roundup
Issued by NWS

Current Version | Previous Version | Text Only | Print | Product List | Glossary On
Versions: 1 2 3 4 5 6 7 8 9 10 11 12 13 14 15 16 17 18 19 20 21 22 23 24 25 26 27 28 29 30 31 32 33 34 35 36 37 38 39 40 41 42 43 44 45 46 47 48 49 50
000
ASUS46 KSTO 010715
RWRCA

NORTHERN AND CENTRAL CA REGIONAL WEATHER ROUNDUP
NATIONAL WEATHER SERVICE SACRAMENTO CA
1100 PM PST SUN FEB 28 2021

NOTE: FAIR INDICATES FEW OR NO CLOUDS BELOW 12,000 FEET WITH NO
SIGNIFICANT WEATHER AND/OR OBSTRUCTIONS TO VISIBILITY.

CAZ001-003-010800-
NORTHWEST AREA

CITY           SKY/WX    TMP DP  RH WIND       PRES   REMARKS
CRESCENT CITY  PTCLDY   N/A N/A N/A S5        30.15F HAZE
UKIAH          CLEAR     46  36  68 CALM      30.17F
$$

CAZ006-505>513-010800-
BAY AREA

CITY           SKY/WX    TMP DP  RH WIND       PRES   REMARKS
SANTA ROSA     CLEAR     44  36  73 CALM      30.18S
SAN RAFAEL     N/A       50  MM  MM MISG
NAPA           CLEAR     48  33  56 NE6       30.17S
CONCORD        CLEAR     48  33  56 CALM      30.17S
OAKLAND CITY   N/A       54  MM  MM MISG
OAKLAND        PTCLDY    50  35  56 NE6       30.18F
SAN FRAN CITY  N/A       52  MM  44 MISG
SAN FRAN ARPT  PTCLDY    52  34  50 S5        30.17R
LIVERMORE      CLEAR     45  31  58 E3        30.17S
HAYWARD        CLEAR     50  36  58 E3        30.17S
REDWOOD CITY   N/A       46  MM  61 MISG
MOFFETT ARPT   CLEAR     50  36  57 CALM      30.18S
SAN JOSE ARPT  PTCLDY    51  32  48 S3        30.18S
$$
CAZ034-037-514>518-010800-
CENTRAL COAST

CITY           SKY/WX    TMP DP  RH WIND       PRES   REMARKS
WATSONVILLE    CLEAR     46  30  53 NW7       30.20R
SALINAS        CLEAR     46  37  71 SE3       30.19S
MONTEREY       CLEAR     48  36  63 SE6       30.19S
SAN LUIS OBISP CLEAR     43  29  57 E3        30.20S
SANTA MARIA    CLEAR     45  34  65 CALM      30.21S
HALF MOON BAY  PTSUNNY   41  36  81 CALM      30.18R
$$
CAZ015-016-010800-
NORTHERN SACRAMENTO VALLEY

CITY           SKY/WX    TMP DP  RH WIND       PRES   REMARKS
REDDING        CLEAR     50  31  48 N3        30.16R
RED BLUFF      CLEAR     49  31  49 SE6       30.18R
OROVILLE       CLEAR     53  33  46 E8        30.19R
$$
CAZ016>018-010800-
SOUTHERN SACRAMENTO VALLEY

CITY           SKY/WX    TMP DP  RH WIND       PRES   REMARKS
AUBURN         CLEAR     48  32  53 E8        30.20S
BEALE AFB      CLEAR     43  34  72 NE3       30.18R
LINCOLN        FAIR      43  34  70 E6        30.18S
MARYSVILLE     CLEAR     46  35  65 E5        30.19R
SAC INTL ARPT  CLEAR     46  34  62 CALM      30.18R
MATHER AIRPORT NOT AVBL
DOWNTOWN SAC   N/A       50  MM  MM MISG
SAC EXEC ARPT  CLEAR     47  34  60 CALM      30.18S
VACAVILLE      CLEAR     41  31  67 CALM      30.19R
TRAVIS AFB     CLEAR     38  31  73 CALM      30.18R
$$
CAZ019>021-010800-
SAN JOAQUIN VALLEY

CITY           SKY/WX    TMP DP  RH WIND       PRES   REMARKS
STOCKTON       CLEAR     47  36  65 E6        30.18S
MODESTO        CLEAR     44  35  70 E5        30.18S
MERCED         CLEAR     45  31  58 CALM      30.18S
LEMOORE        CLEAR     43  23  45 SW8       30.20S
FRESNO         CLEAR     50  30  46 E5        30.19F
HANFORD        CLEAR     42  37  82 NE3       30.20S
PORTERVILLE    CLEAR     46  31  55 S6        30.20S
BAKERSFIELD    CLEAR     60   2   9 SE16G22   30.19R
$$
CAZ011-012-071-010800-
NORTHERN MOUNTAINS

CITY           SKY/WX    TMP DP  RH WIND       PRES   REMARKS
YREKA          CLEAR     31  22  69 CALM      30.18F
MOUNT SHASTA   CLEAR     32  24  72 NE3       30.18F
ALTURAS        CLEAR     26  18  71 N3        30.22S
$$
CAZ011-012-071-010800-
SIERRA NEVADA MTNS

CITY           SKY/WX    TMP DP  RH WIND       PRES   REMARKS
BLUE CANYON    CLEAR     37  24  59 E3        30.23S
TRUCKEE        CLEAR     23  16  74 CALM      30.25S
TAHOE VLY ARPT CLEAR     23  16  74 CALM      30.23S
MAMMOTH LAKES  FAIR      21  12  68 CALM      30.29S
$$




USA.gov is the U.S. government's official web portal to all federal, state and local government web resources and services.